FENGYUN 1C DEB, 30803

Orbit data source: Space-Track

FENGYUN 1C DEB, 30803 is space debris in SSO originally from a launch on Mon, 10 May 1999 UTC launched from the Taiyaun Space Center, China (TSC). Fengyun 1C debris stems from the Chinese weather satellite Fengyun-1C, which was intentionally destroyed by a Chinese anti-satellite missile in 2007. This event dramatically increased the amount of space debris, with thousands of trackable fragments posing hazards to satellites and human spaceflight. The Fengyun 1C debris cloud has become a focal point in discussions about space sustainability and the need for international regulations to prevent the creation of new debris.

Loading next visibility...
Identifier
30803, 1999-025AUM
Orbit
SSO
Country
Flag of CNCN / PRC
Related business
Manufacturer
Unknown
Mission
Spacecraft
Bus & Motor
Unknown
Mass
Unknown
Launch date (UTC)
1999-05-10 (27 years ago)
Launch vehicle
Unknown
Launch site
Taiyaun Space Center, China (TSC)
Object type
Payload
Rocket body
Debris
Shape & HBR
Unknown shape, 0.1 m
Radar Cross Section
Small (<0.1 m²)

Expand to show TLE details & history
Last TLE update: 20 hours ago

TLE from 20 hours ago
0 FENGYUN 1C DEB
1 30803U 99025AUM 26072.58307447  .00002346  00000-0  12487-2 0  9993
2 30803  99.2359 113.4521 0103870 307.6942 205.8332 14.11754579972803
Epoch: 2026-03-13T13:59Z
TLE epoch observation values (Epoch: 2026-03-13T13:59:37.634Z)
Latitude
26.64422°
Longitude
-83.01604°
Altitude
924.356 km
Speed
7.357 km/s
True Right ascension
19h 52m 25s
True Declination
26° 30' 35"
Sunlit
Object was in daylight at epoch
Visualization orbit readout
Latitude
Unknown
Longitude
Unknown
Altitude
Unknown
Speed
Unknown
Apparent Right ascension
Unknown
Apparent Declination
Unknown
Sunlit
N/A
Visualization observer readout
Local Sidereal Time
14:50:07
Azimuth
Unknown
Elevation
Unknown
Doppler factor
Unknown
Orbital elements
Apogee altitude
925.653 km
Perigee altitude
775.484 km
Semi-major axis
7,228.706 km
Eccentricity
0.01039
Inclination
99.2359°
RAAN
113.4521°
Arg. of periapsis
307.6942°
True anomaly
205.32054°
Mean anomaly
205.8332°
Eccentric anomaly
205.57627°
Mean motion
3.53144 °/min
Orbital period
101.94 mins
BSTAR
0.0012487
Loading maneuver chart data...
Computing Atmospheric mass density...

Documentation

Showing up to 5 results
|